Location: Colossi of Memnon
(25.7167°N, 32.6167°E)
Time: 07:26:30
(UTC+00:00)

Hubble Space Telescope - Pass Details

Date: 25 September 2021
Orbit: 535 x 538 km, 28.5° (Epoch: 17 October)

Event Time Altitude Azimuth Distance (km) Brightness Sun altitude
Rises 16:13:35 0° 264° (W) 2,665 6.5 -7.8°
Reaches altitude 10° 16:17:08 10° 232° (SW) 1,774 4.2 -8.6°
Maximum altitude 16:18:42 12° 209° (SSW) 1,653 3.6 -9.0°
Drops below altitude 10° 16:20:17 10° 187° (S) 1,773 3.5 -9.3°
Sets 16:23:51 0° 155° (SSE) 2,661 4.0 -10.1°
